Change the Weather History Date:

Tuesday, December 3, 2013

  Actual Average (KSTL) Record (KSTL)
Temperature  
Mean Temperature 50 °F 39 °F  
Max Temperature 62 °F 47 °F 76 °F (1970)
Min Temperature 37 °F 31 °F 2 °F (1886)
Degree Days  
Heating Degree Days 16 26  
Month to date heating degree days 78  
Since 1 July heating degree days 904  
Cooling Degree Days 0 0  
Month to date cooling degree days 0  
Year to date cooling degree days 1646  
Moisture  
Dew Point 47 °F    
Average Humidity 92    
Maximum Humidity 100    
Minimum Humidity 63    
Precipitation  
Precipitation 0.00 in 0.11 in 2.73 in (1982)
Month to date precipitation 0.32  
Year to date precipitation 38.44  
Snow  
Snow 0.00 in 0.10 in 2.30 in (1921)
Month to date snowfall 0.3  
Since 1 July snowfall 1.0  
Snow Depth -    
Sea Level Pressure  
Sea Level Pressure 29.65 in    
Wind  
Wind Speed 4 mph (SE)    
Max Wind Speed 13 mph    
Max Gust Speed -    
Visibility 7 miles    
Events      
T = Trace of Precipitation, MM = Missing Value Source: NWS Daily Summary

Daily Weather History Graph

Daily Weather History Graph

Search for Another Location

Airport or City:

Trip Planner

Search our weather history database for the weather conditions in past years. The results will help you decide how hot, cold, wet, or windy it might be!

Date:

Astronomy

Dec. 03, 2013 Rise Set
Actual Time 7:04 AM CST 4:42 PM CST
Civil Twilight 6:35 AM CST 5:12 PM CST
Nautical Twilight 6:02 AM CST 5:45 PM CST
Astronomical Twilight 5:30 AM CST 6:17 PM CST
Moon 7:34 AM CST (12/3) 5:46 PM CST (12/3)
Length of Visible Light 10h 36m
Length of Day
9h 37m
New Moon, 1% of the Moon is Illuminated
Dec 3
New Moon
Dec 9
First Quarter
Dec 17
Full
Dec 25
Last Quarter
Jan 1
New

Hourly Weather History & Observations

Time (CST) Temp. Windchill Dew Point Humidity Pressure Visibility Wind Dir Wind Speed Gust Speed Precip Events Conditions
12:15 AM 37.4 °F - 37.4 °F 100% 29.69 in 5.0 mi Calm Calm - N/A   Clear
12:35 AM 37.4 °F - 37.4 °F 100% 29.68 in 6.0 mi Calm Calm - N/A   Clear
12:55 AM 37.4 °F - 37.4 °F 100% 29.68 in 7.0 mi Calm Calm - N/A   Clear
1:15 AM 37.4 °F - 37.4 °F 100% 29.67 in 7.0 mi Calm Calm - N/A   Clear
1:35 AM 37.4 °F - 37.4 °F 100% 29.67 in 8.0 mi Calm Calm - N/A   Clear
1:55 AM 37.4 °F - 37.4 °F 100% 29.66 in 8.0 mi Calm Calm - N/A   Clear
2:15 AM 37.4 °F - 37.4 °F 100% 29.66 in 8.0 mi Calm Calm - N/A   Clear
2:35 AM 37.4 °F - 37.4 °F 100% 29.66 in 7.0 mi Calm Calm - N/A   Clear
2:55 AM 37.4 °F - 37.4 °F 100% 29.65 in 5.0 mi Calm Calm - N/A   Clear
3:15 AM 37.4 °F - 37.4 °F 100% 29.65 in 5.0 mi Calm Calm - N/A   Clear
3:35 AM 37.4 °F - 37.4 °F 100% 29.65 in 4.0 mi Calm Calm - N/A   Clear
3:55 AM 39.2 °F - 39.2 °F 100% 29.65 in 3.0 mi Calm Calm - N/A   Clear
4:15 AM 39.2 °F - 39.2 °F 100% 29.65 in 2.5 mi Calm Calm - N/A   Clear
4:35 AM 39.2 °F - 39.2 °F 100% 29.65 in 0.8 mi Calm Calm - N/A   Mist
4:55 AM 37.4 °F - 37.4 °F 100% 29.65 in 0.8 mi Calm Calm - N/A   Overcast
5:15 AM 39.2 °F - 39.2 °F 100% 29.66 in 3.0 mi Calm Calm - N/A   Overcast
5:35 AM 39.2 °F - 39.2 °F 100% 29.67 in 3.0 mi Calm Calm - N/A   Overcast
5:55 AM 41.0 °F - 41.0 °F 100% 29.67 in 5.0 mi Calm Calm - N/A   Overcast
6:15 AM 41.0 °F - 41.0 °F 100% 29.67 in 5.0 mi Calm Calm - N/A   Overcast
6:35 AM 41.0 °F - 41.0 °F 100% 29.68 in 5.0 mi Calm Calm - N/A   Overcast
6:55 AM 42.8 °F 41.1 °F 42.8 °F 100% 29.68 in 6.0 mi ESE 3.5 mph - N/A   Overcast
7:15 AM 44.6 °F 43.1 °F 44.6 °F 100% 29.68 in 5.0 mi SE 3.5 mph - N/A   Overcast
7:35 AM 46.4 °F 44.3 °F 46.4 °F 100% 29.67 in 5.0 mi SE 4.6 mph - N/A   Overcast
7:55 AM 46.4 °F 45.2 °F 46.4 °F 100% 29.68 in 5.0 mi SE 3.5 mph - N/A   Overcast
8:15 AM 46.4 °F 43.5 °F 46.4 °F 100% 29.68 in 4.0 mi SE 5.8 mph - N/A   Overcast
8:35 AM 50.0 °F - 50.0 °F 100% 29.68 in 5.0 mi SE 5.8 mph - N/A   Overcast
8:55 AM 50.0 °F - 50.0 °F 100% 29.68 in 5.0 mi SE 5.8 mph - N/A   Overcast
9:15 AM 51.8 °F - 51.8 °F 100% 29.68 in 5.0 mi SE 4.6 mph - N/A   Overcast
9:35 AM 51.8 °F - 51.8 °F 100% 29.68 in 5.0 mi SE 5.8 mph - N/A   Overcast
9:55 AM 53.6 °F - 53.6 °F 100% 29.69 in 6.0 mi SSE 8.1 mph - N/A   Overcast
10:15 AM 53.6 °F - 53.6 °F 100% 29.68 in 7.0 mi SSE 11.5 mph - N/A   Overcast
10:35 AM 53.6 °F - 53.6 °F 100% 29.68 in 7.0 mi SSE 10.4 mph - N/A   Overcast
10:55 AM 53.6 °F - 53.6 °F 100% 29.67 in 8.0 mi SSE 9.2 mph - N/A   Mostly Cloudy
11:15 AM 55.4 °F - 53.6 °F 94% 29.66 in 9.0 mi SE 8.1 mph - N/A   Partly Cloudy
11:35 AM 55.4 °F - 53.6 °F 94% 29.66 in 10.0 mi SSE 6.9 mph - N/A   Scattered Clouds
11:55 AM 55.4 °F - 53.6 °F 94% 29.65 in 10.0 mi SE 8.1 mph - N/A   Mostly Cloudy
12:15 PM 57.2 °F - 53.6 °F 88% 29.65 in 10.0 mi SSE 10.4 mph - N/A   Mostly Cloudy
12:35 PM 57.2 °F - 53.6 °F 88% 29.65 in 10.0 mi SSE 9.2 mph - N/A   Overcast
12:55 PM 57.2 °F - 51.8 °F 82% 29.65 in 10.0 mi SSE 10.4 mph - N/A   Overcast
1:15 PM 59.0 °F - 50.0 °F 72% 29.64 in 10.0 mi South 9.2 mph - N/A   Mostly Cloudy
1:35 PM 59.0 °F - 50.0 °F 72% 29.64 in 10.0 mi South 4.6 mph - N/A   Mostly Cloudy
1:55 PM 59.0 °F - 50.0 °F 72% 29.63 in 10.0 mi South 9.2 mph - N/A   Mostly Cloudy
2:15 PM 59.0 °F - 50.0 °F 72% 29.63 in 10.0 mi South 9.2 mph - N/A   Mostly Cloudy
2:35 PM 60.8 °F - 50.0 °F 68% 29.62 in 10.0 mi SE 9.2 mph - N/A   Partly Cloudy
2:55 PM 60.8 °F - 50.0 °F 68% 29.61 in 10.0 mi SSE 8.1 mph - N/A   Clear
3:15 PM 62.6 °F - 50.0 °F 63% 29.61 in 10.0 mi SSE 12.7 mph - N/A   Clear
3:35 PM 59.0 °F - 48.2 °F 67% 29.61 in 10.0 mi SSE 11.5 mph - N/A   Clear
3:55 PM 59.0 °F - 48.2 °F 67% 29.61 in 10.0 mi South 12.7 mph - N/A   Clear
4:15 PM 59.0 °F - 48.2 °F 67% 29.60 in 9.0 mi SE 8.1 mph - N/A   Clear
4:35 PM 57.2 °F - 48.2 °F 72% 29.60 in 8.0 mi SE 8.1 mph - N/A   Clear
4:55 PM 57.2 °F - 50.0 °F 77% 29.61 in 10.0 mi SE 9.2 mph - N/A   Clear
5:15 PM 53.6 °F - 50.0 °F 88% 29.62 in 9.0 mi SE 8.1 mph - N/A   Clear
5:35 PM 53.6 °F - 48.2 °F 82% 29.62 in 10.0 mi SE 9.2 mph - N/A   Clear
5:55 PM 53.6 °F - 48.2 °F 82% 29.64 in 10.0 mi SE 8.1 mph - N/A   Clear
6:15 PM 53.6 °F - 48.2 °F 82% 29.64 in 10.0 mi SE 6.9 mph - N/A   Scattered Clouds
6:35 PM 53.6 °F - 50.0 °F 88% 29.66 in 10.0 mi SE 9.2 mph - N/A   Mostly Cloudy
6:55 PM 53.6 °F - 50.0 °F 88% 29.66 in 9.0 mi SE 6.9 mph - N/A   Overcast
7:15 PM 53.6 °F - 50.0 °F 88% 29.66 in 10.0 mi SE 6.9 mph - N/A   Overcast
7:35 PM 53.6 °F - 50.0 °F 88% 29.66 in 10.0 mi SE 6.9 mph - N/A   Mostly Cloudy
7:55 PM 53.6 °F - 51.8 °F 94% 29.66 in 10.0 mi SE 6.9 mph - N/A   Mostly Cloudy
8:15 PM 51.8 °F - 51.8 °F 100% 29.65 in 10.0 mi SE 8.1 mph - N/A   Mostly Cloudy
8:35 PM 51.8 °F - 51.8 °F 100% 29.65 in 9.0 mi SE 6.9 mph - N/A   Mostly Cloudy
8:55 PM 51.8 °F - 51.8 °F 100% 29.65 in 10.0 mi SE 8.1 mph - N/A   Scattered Clouds
9:15 PM 51.8 °F - 51.8 °F 100% 29.66 in 10.0 mi ESE 8.1 mph - N/A   Clear
9:35 PM 51.8 °F - 51.8 °F 100% 29.65 in 10.0 mi SE 9.2 mph - N/A   Clear
9:55 PM 51.8 °F - 51.8 °F 100% 29.65 in 10.0 mi SE 6.9 mph - N/A   Clear
10:15 PM 50.0 °F - 50.0 °F 100% 29.66 in 9.0 mi ESE 4.6 mph - N/A   Clear
10:35 PM 50.0 °F - 50.0 °F 100% 29.65 in 7.0 mi East 3.5 mph - N/A   Clear
10:55 PM 46.4 °F 45.2 °F 46.4 °F 100% 29.66 in 5.0 mi SSE 3.5 mph - N/A   Mostly Cloudy
11:15 PM 50.0 °F - 50.0 °F 100% 29.66 in 6.0 mi South 3.5 mph - N/A   Overcast
11:35 PM 50.0 °F - 50.0 °F 100% 29.67 in 7.0 mi SE 4.6 mph - N/A   Overcast
11:55 PM 51.8 °F - 51.8 °F 100% 29.66 in 8.0 mi ESE 3.5 mph - N/A   Overcast